User: anonymous   Login
Location: Unspecified
(0.0000°N, 0.0000°E)
Time: 04:55:10
(UTC+00:00)
Language:

Intelsat V F3 - Orbit

View from above orbital plane
View from above orbital plane
View from above satellite
View from above satellite

Ground track
Ground track

The orbit data is extracted from the following two-line orbital elements,

1 12994U 81119A   18292.21718806 +.00000059 +00000-0 +00000-0 0  9994
2 12994 014.7091 349.9760 0024348 189.1047 163.9687 00.99464391098864
Epoch (UTC): 19 October 2018 05:12:45
Eccentricity: 0.0024348
inclination: 14.7091°
perigee height: 35911 km
apogee height: 36117 km
right ascension of ascending node: 349.9760°
argument of perigee: 189.1047°
revolutions per day: 0.99464391
mean anomaly at epoch: 163.9687°
orbit number at epoch: 9886

The dashed part of the orbit path shows where the satellite is in the earth's shadow,  

DLR